Regional Weather Roundup
Issued by NWS

Home | Current Version | Previous Version | Graphics & Text | Print | Product List | Glossary On
Versions: 1 2 3 4 5 6 7 8 9 10 11 12 13 14 15 16 17 18 19 20 21 22 23 24 25 26 27 28 29 30 31 32 33 34 35 36 37 38 39 40 41 42 43 44 45 46 47 48 49 50
000
ASUS43 KOAX 011702
RWRNE

WEATHER ROUNDUP FOR NEBRASKA
NATIONAL WEATHER SERVICE OMAHA NE
1200 PM CDT WED APR 01 2015

NOTES: SATELLITE DATA IS BEING USED TO AUGMENT CLOUD COVER ABOVE
       12000 FEET.
       "FAIR" INDICATES FEW OR NO CLOUDS BELOW 12,000 FEET WITH NO
       SIGNIFICANT WEATHER AND/OR OBSTRUCTIONS TO VISIBILITY.

  * THESE STATIONS DO NOT REPORT WEATHER SUCH AS RAIN...SNOW OR FOG.

NEZ001>004-019>022-054>056-011800-
NEBRASKA PANHANDLE

CITY           SKY/WX    TMP DP  RH WIND       PRES   REMARKS
SCOTTSBLUFF    PTSUNNY   68  29  23 W10       29.72R
ALLIANCE       CLOUDY    63  33  32 N15       29.71R
CHADRON        PTSUNNY   58  36  43 NE5       29.70R
SIDNEY         PTSUNNY   71  31  22 NW22G30   29.71S
$$

NEZ057>060-069>072-079>082-011800-
SOUTHWEST NEBRASKA

CITY           SKY/WX    TMP DP  RH WIND       PRES   REMARKS
NORTH PLATTE   MOSUNNY   72  39  30 W15       29.64F
IMPERIAL         N/A     74  30  19 NW9       29.67F
MCCOOK         MOSUNNY   75  42  30 S18       29.65F
$$

NEZ005>010-023>029-035>040-094-011800-
NORTH CENTRAL NEBRASKA

CITY           SKY/WX    TMP DP  RH WIND       PRES   REMARKS
VALENTINE      PTSUNNY   61  36  39 NW16G25   29.64R
BROKEN BOW     MOSUNNY   75  44  33 SW30G40   29.62F
ORD            SUNNY     76  43  30 S30G43    29.59F
$$

NEZ041-046>049-061>064-073>077-083>087-011800-
SOUTH CENTRAL NEBRASKA

CITY           SKY/WX    TMP DP  RH WIND       PRES   REMARKS
GRAND ISLAND   SUNNY     76  43  30 SW24G37   29.67F
HASTINGS       SUNNY     75  44  33 S21G31    29.67F
KEARNEY *      SUNNY     75  43  31 S30G37    29.66F
$$

NEZ011>018-030>034-042>045-011800-
NORTHEAST NEBRASKA

CITY           SKY/WX    TMP DP  RH WIND       PRES   REMARKS
NORFOLK        SUNNY     76  45  33 S30G39    29.62F
COLUMBUS *     SUNNY     75  45  33 S24G30    29.70F
TEKAMAH        SUNNY     78  42  27 S29G37    29.70F
$$

NEZ050>053-065>068-078-088>093-011800-
SOUTHEAST NEBRASKA

CITY           SKY/WX    TMP DP  RH WIND       PRES   REMARKS
LINCOLN        SUNNY     76  47  35 S22G33    29.73F
OMAHA EPPLEY   MOSUNNY   75  41  29 S23G32    29.74F
FALLS CITY     SUNNY     75  50  41 S20G29    29.79F
$$

NEZ044-045-051>053-067-011800-
OMAHA AREA

CITY           SKY/WX    TMP DP  RH WIND       PRES   REMARKS
OMAHA EPPLEY   MOSUNNY   75  41  29 S23G32    29.74F
OFFUTT AFB     SUNNY     76  43  30 S22       29.74F
$$


USA.gov is the U.S. government's official web portal to all federal, state and local government web resources and services.